• en France
  • Liste des pays
  • À 7 jours
  • Température de l'eau
  • Carte satellitaire
  • Carte météo
  • Widgets météo
  • user-avatar
    Se connecter

    Météo par heure à San Juan

    Ce jour, 14 Novembre, Mercredi

    Heure Température Précipitation Vent Pression Humidité
    00:00 +18°C° 0 mm 2 m/s 705 mmHg 20%
    01:00 +18°C° 0 mm 3 m/s 705 mmHg 21%
    02:00 +17°C° 0 mm 2 m/s 705 mmHg 20%
    03:00 +17°C° 0 mm 2 m/s 704 mmHg 20%
    04:00 +17°C° 0 mm 2 m/s 704 mmHg 19%
    05:00 +18°C° 0 mm 2 m/s 704 mmHg 17%
    06:00 +20°C° 0 mm 2 m/s 705 mmHg 15%
    07:00 +23°C° 0 mm 2 m/s 705 mmHg 12%
    08:00 +24°C° 0 mm 2 m/s 705 mmHg 11%
    09:00 +26°C° 0 mm 2 m/s 705 mmHg 10%
    10:00 +27°C° 0 mm 2 m/s 705 mmHg 9%
    11:00 +28°C° 0 mm 2 m/s 705 mmHg 9%
    12:00 +30°C° 0 mm 3 m/s 704 mmHg 8%
    13:00 +31°C° 0 mm 3 m/s 704 mmHg 7%
    14:00 +31°C° 0 mm 3 m/s 703 mmHg 8%
    15:00 +31°C° 0 mm 3 m/s 703 mmHg 8%
    16:00 +31°C° 0 mm 3 m/s 703 mmHg 8%
    17:00 +30°C° 0 mm 2 m/s 703 mmHg 9%
    18:00 +28°C° 0 mm 2 m/s 703 mmHg 10%
    19:00 +27°C° 0 mm 2 m/s 703 mmHg 12%
    20:00 +26°C° 0 mm 2 m/s 703 mmHg 13%
    21:00 +25°C° 0 mm 2 m/s 703 mmHg 13%
    22:00 +25°C° 0 mm 3 m/s 703 mmHg 14%
    23:00 +24°C° 0 mm 3 m/s 703 mmHg 15%

    Demain, 15 Novembre, Jeudi

    Heure Température Précipitation Vent Pression Humidité
    00:00 +24°C° 0 mm 3 m/s 702 mmHg 16%
    01:00 +22°C° 0 mm 3 m/s 702 mmHg 18%
    02:00 +22°C° 0 mm 3 m/s 701 mmHg 19%
    03:00 +22°C° 0 mm 3 m/s 701 mmHg 20%
    04:00 +22°C° 0 mm 3 m/s 701 mmHg 22%
    05:00 +24°C° 0 mm 3 m/s 702 mmHg 20%
    06:00 +26°C° 0 mm 3 m/s 702 mmHg 18%
    07:00 +28°C° 0 mm 3 m/s 702 mmHg 16%
    08:00 +29°C° 0 mm 3 m/s 702 mmHg 14%
    09:00 +32°C° 0 mm 4 m/s 702 mmHg 12%
    10:00 +33°C° 0 mm 4 m/s 703 mmHg 11%
    11:00 +34°C° 0 mm 4 m/s 702 mmHg 10%
    12:00 +34°C° 0 mm 5 m/s 702 mmHg 10%
    13:00 +35°C° 0 mm 5 m/s 702 mmHg 9%
    14:00 +35°C° 0 mm 5 m/s 701 mmHg 9%
    15:00 +35°C° 0 mm 6 m/s 701 mmHg 10%
    16:00 +35°C° 0 mm 6 m/s 701 mmHg 10%
    17:00 +33°C° 0 mm 6 m/s 702 mmHg 13%
    18:00 +32°C° 0 mm 6 m/s 703 mmHg 15%
    19:00 +30°C° 0 mm 6 m/s 703 mmHg 18%
    20:00 +28°C° 0 mm 6 m/s 704 mmHg 24%
    21:00 +27°C° 0 mm 7 m/s 705 mmHg 29%
    22:00 +26°C° 0 mm 8 m/s 705 mmHg 34%
    23:00 +24°C° 0 mm 7 m/s 705 mmHg 37%

    Après-demain, 16 Novembre, Vendredi

    Heure Température Précipitation Vent Pression Humidité
    00:00 +23°C° 0 mm 6 m/s 705 mmHg 41%
    01:00 +22°C° 0 mm 5 m/s 704 mmHg 44%
    02:00 +21°C° 0 mm 4 m/s 704 mmHg 47%
    03:00 +21°C° 0 mm 4 m/s 704 mmHg 50%
    04:00 +20°C° 0 mm 3 m/s 704 mmHg 53%
    05:00 +21°C° 0 mm 3 m/s 704 mmHg 51%
    06:00 +21°C° 0 mm 3 m/s 704 mmHg 49%
    07:00 +23°C° 0 mm 2 m/s 704 mmHg 48%
    08:00 +25°C° 0 mm 2 m/s 704 mmHg 42%
    09:00 +27°C° 0 mm 2 m/s 703 mmHg 37%
    10:00 +29°C° 0 mm 3 m/s 703 mmHg 31%
    11:00 +30°C° 0 mm 3 m/s 703 mmHg 26%
    12:00 +33°C° 0 mm 4 m/s 702 mmHg 21%
    13:00 +35°C° 0 mm 5 m/s 701 mmHg 15%
    14:00 +35°C° 0 mm 5 m/s 701 mmHg 14%
    15:00 +36°C° 0 mm 5 m/s 700 mmHg 14%
    16:00 +36°C° 0 mm 6 m/s 700 mmHg 13%
    17:00 +35°C° 0 mm 6 m/s 700 mmHg 15%
    18:00 +33°C° 0 mm 5 m/s 700 mmHg 17%
    19:00 +32°C° 0 mm 5 m/s 701 mmHg 19%
    20:00 +30°C° 0 mm 6 m/s 701 mmHg 23%
    21:00 +29°C° 0 mm 6 m/s 701 mmHg 27%
    22:00 +29°C° 0 mm 7 m/s 701 mmHg 31%
    23:00 +28°C° 0 mm 6 m/s 701 mmHg 33%

    17 Novembre, Samedi

    Heure Température Précipitation Vent Pression Humidité
    00:00 +27°C° 0 mm 6 m/s 701 mmHg 35%
    01:00 +26°C° 0 mm 6 m/s 701 mmHg 37%
    02:00 +26°C° 0 mm 6 m/s 701 mmHg 35%
    03:00 +26°C° 0 mm 6 m/s 701 mmHg 32%
    04:00 +24°C° 0 mm 6 m/s 701 mmHg 30%
    05:00 +26°C° 0 mm 5 m/s 702 mmHg 26%
    06:00 +27°C° 0 mm 5 m/s 702 mmHg 23%
    07:00 +28°C° 0 mm 4 m/s 703 mmHg 20%
    08:00 +28°C° 0 mm 6 m/s 703 mmHg 24%
    09:00 +28°C° 0 mm 7 m/s 703 mmHg 27%
    10:00 +27°C° 0 mm 8 m/s 703 mmHg 31%
    11:00 +28°C° 0 mm 8 m/s 703 mmHg 29%
    12:00 +29°C° 0 mm 8 m/s 703 mmHg 26%
    13:00 +30°C° 0 mm 7 m/s 702 mmHg 23%
    14:00 +30°C° 0 mm 7 m/s 702 mmHg 23%
    15:00 +29°C° 0 mm 7 m/s 702 mmHg 23%
    16:00 +29°C° 0 mm 7 m/s 702 mmHg 23%
    17:00 +27°C° 0 mm 7 m/s 703 mmHg 25%
    18:00 +26°C° 0 mm 7 m/s 704 mmHg 28%
    19:00 +23°C° 0 mm 7 m/s 705 mmHg 30%
    20:00 +22°C° 0 mm 6 m/s 706 mmHg 30%
    21:00 +21°C° 0 mm 6 m/s 706 mmHg 31%
    22:00 +20°C° 0 mm 6 m/s 707 mmHg 31%
    23:00 +19°C° 0 mm 5 m/s 707 mmHg 32%

    18 Novembre, Dimanche

    Heure Température Précipitation Vent Pression Humidité
    00:00 +19°C° 0 mm 4 m/s 706 mmHg 33%
    01:00 +18°C° 0 mm 4 m/s 706 mmHg 34%
    02:00 +17°C° 0 mm 3 m/s 706 mmHg 35%
    03:00 +17°C° 0 mm 3 m/s 706 mmHg 35%
    04:00 +16°C° 0 mm 2 m/s 706 mmHg 36%
    05:00 +17°C° 0 mm 2 m/s 706 mmHg 34%
    06:00 +18°C° 0 mm 2 m/s 707 mmHg 32%
    07:00 +19°C° 0 mm 2 m/s 707 mmHg 29%
    08:00 +20°C° 0 mm 2 m/s 707 mmHg 27%
    09:00 +23°C° 0 mm 2 m/s 707 mmHg 25%
    10:00 +24°C° 0 mm 2 m/s 707 mmHg 22%
    11:00 +26°C° 0 mm 2 m/s 706 mmHg 21%
    12:00 +27°C° 0 mm 2 m/s 706 mmHg 19%
    13:00 +28°C° 0 mm 2 m/s 705 mmHg 17%
    14:00 +29°C° 0 mm 2 m/s 705 mmHg 16%
    15:00 +29°C° 0 mm 2 m/s 705 mmHg 16%
    16:00 +30°C° 0 mm 2 m/s 704 mmHg 15%
    17:00 +29°C° 0 mm 2 m/s 705 mmHg 16%
    18:00 +28°C° 0 mm 2 m/s 705 mmHg 17%
    19:00 +27°C° 0 mm 2 m/s 706 mmHg 18%
    20:00 +27°C° 0 mm 2 m/s 706 mmHg 20%
    21:00 +26°C° 0 mm 2 m/s 706 mmHg 21%
    22:00 +25°C° 0 mm 2 m/s 706 mmHg 23%
    23:00 +25°C° 0 mm 2 m/s 706 mmHg 25%

    19 Novembre, Lundi

    Heure Température Précipitation Vent Pression Humidité
    00:00 +24°C° 0 mm 3 m/s 705 mmHg 27%
    01:00 +24°C° 0 mm 3 m/s 705 mmHg 29%
    02:00 +22°C° 0 mm 3 m/s 704 mmHg 30%
    03:00 +22°C° 0 mm 3 m/s 704 mmHg 31%
    04:00 +21°C° 0 mm 3 m/s 704 mmHg 32%
    05:00 +24°C° 0 mm 3 m/s 704 mmHg 29%
    06:00 +26°C° 0 mm 3 m/s 705 mmHg 25%
    07:00 +27°C° 0 mm 3 m/s 705 mmHg 22%
    08:00 +29°C° 0 mm 4 m/s 705 mmHg 19%
    09:00 +30°C° 0 mm 4 m/s 704 mmHg 17%
    10:00 +33°C° 0 mm 4 m/s 704 mmHg 14%
    11:00 +34°C° 0 mm 4 m/s 703 mmHg 13%
    12:00 +36°C° 0 mm 4 m/s 702 mmHg 11%
    13:00 +37°C° 0 mm 5 m/s 701 mmHg 9%
    14:00 +37°C° 0 mm 4 m/s 700 mmHg 10%
    15:00 +37°C° 0 mm 4 m/s 700 mmHg 10%
    16:00 +37°C° 0 mm 4 m/s 700 mmHg 10%
    17:00 +35°C° 0 mm 4 m/s 700 mmHg 13%
    18:00 +34°C° 0 mm 4 m/s 701 mmHg 16%
    19:00 +32°C° 0 mm 4 m/s 701 mmHg 19%
    20:00 +30°C° 0 mm 3 m/s 701 mmHg 23%
    21:00 +29°C° 0 mm 3 m/s 702 mmHg 26%
    22:00 +29°C° 0 mm 3 m/s 702 mmHg 30%
    23:00 +28°C° 0 mm 3 m/s 702 mmHg 32%
    Voir plus